Retour au catalogue

CZ-6A DEB

ActifSSO
NORAD 54410·DEBRIS·🇨🇳 China

Lancé Nov 11, 2022 depuis Taiyuan Satellite Launch Center

Loading…

Prochains Passages (prochaines 24 heures)

TLE

FraisSource: Space-Track

Époque: Sep 14, 2026, 02:12 UTC

1 54410U 22151EJ  26257.09195902  .00001416  00000-0  39659-3 0  9999
2 54410  98.6837 307.4063 0126244 355.4913   4.5129 14.43174163201197

Suivez CZ-6A DEB en temps réel avec AllMySat

Download on the App Store